Year,Month,Day,Hour,Minute,Value (Times are PST for temperature in C)
2007,08,25,00,00,15.70
2007,08,25,00,01,15.70
2007,08,25,00,02,15.70
2007,08,25,00,03,15.70
2007,08,25,00,04,15.70
2007,08,25,00,05,15.70
2007,08,25,00,06,15.70
2007,08,25,00,07,15.60
2007,08,25,00,08,15.60
2007,08,25,00,09,15.60
2007,08,25,00,10,15.50
2007,08,25,00,11,15.50
2007,08,25,00,12,15.50
2007,08,25,00,13,15.50
2007,08,25,00,14,15.50
2007,08,25,00,15,15.50
2007,08,25,00,16,15.50
2007,08,25,00,17,15.70
2007,08,25,00,18,15.80
2007,08,25,00,19,15.80
2007,08,25,00,20,15.80
2007,08,25,00,21,15.90
2007,08,25,00,22,15.90
2007,08,25,00,23,15.90
2007,08,25,00,24,15.90
2007,08,25,00,25,15.80
2007,08,25,00,26,15.70
2007,08,25,00,27,15.60
2007,08,25,00,28,15.50
2007,08,25,00,29,15.50
2007,08,25,00,30,15.40
2007,08,25,00,31,15.30
2007,08,25,00,32,15.30
2007,08,25,00,33,15.30
2007,08,25,00,34,15.30
2007,08,25,00,35,15.30
2007,08,25,00,36,15.30
2007,08,25,00,37,15.40
2007,08,25,00,38,15.40
2007,08,25,00,39,15.50
2007,08,25,00,40,15.60
2007,08,25,00,41,15.60
2007,08,25,00,42,15.60
2007,08,25,00,43,15.70
2007,08,25,00,44,15.60
2007,08,25,00,45,15.60
2007,08,25,00,46,15.50
2007,08,25,00,47,15.40
2007,08,25,00,48,15.30
2007,08,25,00,49,15.30
2007,08,25,00,50,15.20
2007,08,25,00,51,15.10
2007,08,25,00,52,15.00
2007,08,25,00,53,15.00
2007,08,25,00,54,15.00
2007,08,25,00,55,15.00
2007,08,25,00,56,15.00
2007,08,25,00,57,15.00
2007,08,25,00,58,15.00
2007,08,25,00,59,14.90
2007,08,25,01,00,14.90
2007,08,25,01,01,14.80
2007,08,25,01,02,14.80
2007,08,25,01,03,14.70
2007,08,25,01,04,14.70
2007,08,25,01,05,14.70
2007,08,25,01,06,14.70
2007,08,25,01,07,14.70
2007,08,25,01,08,14.70
2007,08,25,01,09,14.70
2007,08,25,01,10,14.70
2007,08,25,01,11,14.70
2007,08,25,01,12,14.70
2007,08,25,01,13,14.70
2007,08,25,01,14,14.70
2007,08,25,01,15,14.70
2007,08,25,01,16,14.60
2007,08,25,01,17,14.60
2007,08,25,01,18,14.60
2007,08,25,01,19,14.60
2007,08,25,01,20,14.50
2007,08,25,01,21,14.50
2007,08,25,01,22,14.50
2007,08,25,01,23,14.50
2007,08,25,01,24,14.40
2007,08,25,01,25,14.40
2007,08,25,01,26,14.40
2007,08,25,01,27,14.40
2007,08,25,01,28,14.30
2007,08,25,01,29,14.30
2007,08,25,01,30,14.30
2007,08,25,01,31,14.30
2007,08,25,01,32,14.30
2007,08,25,01,33,14.30
2007,08,25,01,34,14.20
2007,08,25,01,35,14.20
2007,08,25,01,36,14.20
2007,08,25,01,37,14.20
2007,08,25,01,38,14.10
2007,08,25,01,39,14.10
2007,08,25,01,40,14.10
2007,08,25,01,41,14.10
2007,08,25,01,42,14.00
2007,08,25,01,43,14.00
2007,08,25,01,44,14.00
2007,08,25,01,45,14.00
2007,08,25,01,46,14.00
2007,08,25,01,47,14.00
2007,08,25,01,48,14.00
2007,08,25,01,49,14.00
2007,08,25,01,50,14.00
2007,08,25,01,51,14.00
2007,08,25,01,52,14.00
2007,08,25,01,53,14.00
2007,08,25,01,54,14.00
2007,08,25,01,55,14.00
2007,08,25,01,56,13.90
2007,08,25,01,57,13.90
2007,08,25,01,58,13.90
2007,08,25,01,59,13.90
2007,08,25,02,00,13.90
2007,08,25,02,01,13.90
2007,08,25,02,02,13.90
2007,08,25,02,03,13.90
2007,08,25,02,04,13.90
2007,08,25,02,05,13.90
2007,08,25,02,06,13.90
2007,08,25,02,07,13.90
2007,08,25,02,08,13.90
2007,08,25,02,09,13.90
2007,08,25,02,10,13.90
2007,08,25,02,11,13.90
2007,08,25,02,12,13.90
2007,08,25,02,13,13.90
2007,08,25,02,14,13.90
2007,08,25,02,15,13.90
2007,08,25,02,16,13.90
2007,08,25,02,17,13.90
2007,08,25,02,18,13.90
2007,08,25,02,19,13.90
2007,08,25,02,20,13.90
2007,08,25,02,21,13.80
2007,08,25,02,22,13.80
2007,08,25,02,23,13.80
2007,08,25,02,24,13.80
2007,08,25,02,25,13.80
2007,08,25,02,26,13.70
2007,08,25,02,27,13.70
2007,08,25,02,28,13.70
2007,08,25,02,29,13.70
2007,08,25,02,30,13.70
2007,08,25,02,31,13.70
2007,08,25,02,32,13.70
2007,08,25,02,33,13.70
2007,08,25,02,34,13.70
2007,08,25,02,35,13.70
2007,08,25,02,36,13.70
2007,08,25,02,37,13.70
2007,08,25,02,38,13.60
2007,08,25,02,39,13.60
2007,08,25,02,40,13.60
2007,08,25,02,41,13.60
2007,08,25,02,42,13.60
2007,08,25,02,43,13.50
2007,08,25,02,44,13.50
2007,08,25,02,45,13.50
2007,08,25,02,46,13.50
2007,08,25,02,47,13.50
2007,08,25,02,48,13.50
2007,08,25,02,49,13.50
2007,08,25,02,50,13.50
2007,08,25,02,51,13.50
2007,08,25,02,52,13.50
2007,08,25,02,53,13.50
2007,08,25,02,54,13.50
2007,08,25,02,55,13.50
2007,08,25,02,56,13.60
2007,08,25,02,57,13.70
2007,08,25,02,58,13.80
2007,08,25,02,59,13.90
2007,08,25,03,00,14.00
2007,08,25,03,01,14.00
2007,08,25,03,02,14.10
2007,08,25,03,03,14.20
2007,08,25,03,04,14.30
2007,08,25,03,05,14.30
2007,08,25,03,06,14.30
2007,08,25,03,07,14.40
2007,08,25,03,08,14.40
2007,08,25,03,09,14.40
2007,08,25,03,10,14.40
2007,08,25,03,11,14.40
2007,08,25,03,12,14.30
2007,08,25,03,13,14.30
2007,08,25,03,14,14.30
2007,08,25,03,15,14.20
2007,08,25,03,16,14.20
2007,08,25,03,17,14.10
2007,08,25,03,18,14.10
2007,08,25,03,19,14.00
2007,08,25,03,20,14.00
2007,08,25,03,21,14.00
2007,08,25,03,22,13.90
2007,08,25,03,23,13.90
2007,08,25,03,24,13.90
2007,08,25,03,25,13.90
2007,08,25,03,26,13.80
2007,08,25,03,27,13.80
2007,08,25,03,28,13.80
2007,08,25,03,29,13.80
2007,08,25,03,30,13.80
2007,08,25,03,31,13.80
2007,08,25,03,32,13.80
2007,08,25,03,33,13.70
2007,08,25,03,34,13.70
2007,08,25,03,35,13.70
2007,08,25,03,36,13.70
2007,08,25,03,37,13.70
2007,08,25,03,38,13.60
2007,08,25,03,39,13.60
2007,08,25,03,40,13.60
2007,08,25,03,41,13.60
2007,08,25,03,42,13.60
2007,08,25,03,43,13.60
2007,08,25,03,44,13.60
2007,08,25,03,45,13.60
2007,08,25,03,46,13.60
2007,08,25,03,47,13.60
2007,08,25,03,48,13.70
2007,08,25,03,49,13.70
2007,08,25,03,50,13.70
2007,08,25,03,51,13.70
2007,08,25,03,52,13.70
2007,08,25,03,53,13.60
2007,08,25,03,54,13.60
2007,08,25,03,55,13.70
2007,08,25,03,56,13.70
2007,08,25,03,57,13.70
2007,08,25,03,58,13.70
2007,08,25,03,59,13.60
2007,08,25,04,00,13.70
2007,08,25,04,01,13.70
2007,08,25,04,02,13.70
2007,08,25,04,03,13.70
2007,08,25,04,04,13.60
2007,08,25,04,05,13.70
2007,08,25,04,06,13.70
2007,08,25,04,07,13.70
2007,08,25,04,08,13.70
2007,08,25,04,09,13.70
2007,08,25,04,10,13.80
2007,08,25,04,11,13.80
2007,08,25,04,12,13.80
2007,08,25,04,13,13.80
2007,08,25,04,14,13.80
2007,08,25,04,15,13.80
2007,08,25,04,16,13.80
2007,08,25,04,17,13.80
2007,08,25,04,18,13.80
2007,08,25,04,19,13.80
2007,08,25,04,20,13.80
2007,08,25,04,21,13.80
2007,08,25,04,22,13.80
2007,08,25,04,23,13.80
2007,08,25,04,24,13.80
2007,08,25,04,25,13.80
2007,08,25,04,26,13.80
2007,08,25,04,27,13.80
2007,08,25,04,28,13.70
2007,08,25,04,29,13.70
2007,08,25,04,30,13.70
2007,08,25,04,31,13.80
2007,08,25,04,32,13.80
2007,08,25,04,33,13.80
2007,08,25,04,34,13.80
2007,08,25,04,35,13.80
2007,08,25,04,36,13.80
2007,08,25,04,37,13.80
2007,08,25,04,38,13.80
2007,08,25,04,39,13.70
2007,08,25,04,40,13.70
2007,08,25,04,41,13.70
2007,08,25,04,42,13.70
2007,08,25,04,43,13.60
2007,08,25,04,44,13.60
2007,08,25,04,45,13.60
2007,08,25,04,46,13.60
2007,08,25,04,47,13.60
2007,08,25,04,48,13.50
2007,08,25,04,49,13.50
2007,08,25,04,50,13.50
2007,08,25,04,51,13.50
2007,08,25,04,52,13.50
2007,08,25,04,53,13.40
2007,08,25,04,54,13.40
2007,08,25,04,55,13.40
2007,08,25,04,56,13.30
2007,08,25,04,57,13.30
2007,08,25,04,58,13.30
2007,08,25,04,59,13.30
2007,08,25,05,00,13.30
2007,08,25,05,01,13.30
2007,08,25,05,02,13.20
2007,08,25,05,03,13.20
2007,08,25,05,04,13.20
2007,08,25,05,05,13.20
2007,08,25,05,06,13.20
2007,08,25,05,07,13.20
2007,08,25,05,08,13.20
2007,08,25,05,09,13.20
2007,08,25,05,10,13.10
2007,08,25,05,11,13.10
2007,08,25,05,12,13.10
2007,08,25,05,13,13.10
2007,08,25,05,14,13.10
2007,08,25,05,15,13.10
2007,08,25,05,16,13.10
2007,08,25,05,17,13.10
2007,08,25,05,18,13.10
2007,08,25,05,19,13.10
2007,08,25,05,20,13.10
2007,08,25,05,21,13.10
2007,08,25,05,22,13.10
2007,08,25,05,23,13.10
2007,08,25,05,24,13.10
2007,08,25,05,25,13.10
2007,08,25,05,26,13.10
2007,08,25,05,27,13.10
2007,08,25,05,28,13.10
2007,08,25,05,29,13.20
2007,08,25,05,30,13.20
2007,08,25,05,31,13.30
2007,08,25,05,32,13.30
2007,08,25,05,33,13.40
2007,08,25,05,34,13.40
2007,08,25,05,35,13.40
2007,08,25,05,36,13.40
2007,08,25,05,37,13.40
2007,08,25,05,38,13.50
2007,08,25,05,39,13.50
2007,08,25,05,40,13.40
2007,08,25,05,41,13.40
2007,08,25,05,42,13.40
2007,08,25,05,43,13.40
2007,08,25,05,44,13.40
2007,08,25,05,45,13.40
2007,08,25,05,46,13.30
2007,08,25,05,47,13.30
2007,08,25,05,48,13.30
2007,08,25,05,49,13.30
2007,08,25,05,50,13.30
2007,08,25,05,51,13.30
2007,08,25,05,52,13.30
2007,08,25,05,53,13.30
2007,08,25,05,54,13.30
2007,08,25,05,55,13.30
2007,08,25,05,56,13.30
2007,08,25,05,57,13.30
2007,08,25,05,58,13.40
2007,08,25,05,59,13.40
2007,08,25,06,00,13.50
2007,08,25,06,01,13.50
2007,08,25,06,02,13.60
2007,08,25,06,03,13.60
2007,08,25,06,04,13.70
2007,08,25,06,05,13.80
2007,08,25,06,06,13.80
2007,08,25,06,07,13.90
2007,08,25,06,08,14.00
2007,08,25,06,09,14.10
2007,08,25,06,10,14.10
2007,08,25,06,11,14.20
2007,08,25,06,12,14.20
2007,08,25,06,13,14.20
2007,08,25,06,14,14.30
2007,08,25,06,15,14.30
2007,08,25,06,16,14.30
2007,08,25,06,17,14.30
2007,08,25,06,18,14.30
2007,08,25,06,19,14.30
2007,08,25,06,20,14.30
2007,08,25,06,21,14.20
2007,08,25,06,22,14.20
2007,08,25,06,23,14.20
2007,08,25,06,24,14.20
2007,08,25,06,25,14.10
2007,08,25,06,26,14.10
2007,08,25,06,27,14.10
2007,08,25,06,28,14.10
2007,08,25,06,29,14.10
2007,08,25,06,30,14.00
2007,08,25,06,31,14.00
2007,08,25,06,32,14.00
2007,08,25,06,33,13.90
2007,08,25,06,34,13.90
2007,08,25,06,35,13.90
2007,08,25,06,36,13.80
2007,08,25,06,37,13.80
2007,08,25,06,38,13.80
2007,08,25,06,39,13.70
2007,08,25,06,40,13.70
2007,08,25,06,41,13.70
2007,08,25,06,42,13.70
2007,08,25,06,43,13.60
2007,08,25,06,44,13.60
2007,08,25,06,45,13.60
2007,08,25,06,46,13.60
2007,08,25,06,47,13.60
2007,08,25,06,48,13.50
2007,08,25,06,49,13.50
2007,08,25,06,50,13.50
2007,08,25,06,51,13.50
2007,08,25,06,52,13.50
2007,08,25,06,53,13.50
2007,08,25,06,54,13.50
2007,08,25,06,55,13.40
2007,08,25,06,56,13.40
2007,08,25,06,57,13.40
2007,08,25,06,58,13.40
2007,08,25,06,59,13.40
2007,08,25,07,00,13.40
2007,08,25,07,01,13.40
2007,08,25,07,02,13.40
2007,08,25,07,03,13.40
2007,08,25,07,04,13.40
2007,08,25,07,05,13.40
2007,08,25,07,06,13.50
2007,08,25,07,07,13.50
2007,08,25,07,08,13.50
2007,08,25,07,09,13.50
2007,08,25,07,10,13.50
2007,08,25,07,11,13.50
2007,08,25,07,12,13.50
2007,08,25,07,13,13.50
2007,08,25,07,14,13.50
2007,08,25,07,15,13.50
2007,08,25,07,16,13.60
2007,08,25,07,17,13.60
2007,08,25,07,18,13.60
2007,08,25,07,19,13.60
2007,08,25,07,20,13.70
2007,08,25,07,21,13.70
2007,08,25,07,22,13.80
2007,08,25,07,23,13.80
2007,08,25,07,24,13.80
2007,08,25,07,25,13.90
2007,08,25,07,26,13.90
2007,08,25,07,27,13.90
2007,08,25,07,28,14.00
2007,08,25,07,29,14.00
2007,08,25,07,30,14.10
2007,08,25,07,31,14.10
2007,08,25,07,32,14.20
2007,08,25,07,33,14.20
2007,08,25,07,34,14.30
2007,08,25,07,35,14.30
2007,08,25,07,36,14.30
2007,08,25,07,37,14.40
2007,08,25,07,38,14.40
2007,08,25,07,39,14.40
2007,08,25,07,40,14.50
2007,08,25,07,41,14.50
2007,08,25,07,42,14.60
2007,08,25,07,43,14.60
2007,08,25,07,44,14.60
2007,08,25,07,45,14.60
2007,08,25,07,46,14.60
2007,08,25,07,47,14.70
2007,08,25,07,48,14.70
2007,08,25,07,49,14.70
2007,08,25,07,50,14.70
2007,08,25,07,51,14.70
2007,08,25,07,52,14.70
2007,08,25,07,53,14.70
2007,08,25,07,54,14.70
2007,08,25,07,55,14.70
2007,08,25,07,56,14.80
2007,08,25,07,57,14.80
2007,08,25,07,58,14.80
2007,08,25,07,59,14.80
2007,08,25,08,00,14.90
2007,08,25,08,01,14.90
2007,08,25,08,02,15.00
2007,08,25,08,03,15.00
2007,08,25,08,04,15.00
2007,08,25,08,05,15.00
2007,08,25,08,06,15.00
2007,08,25,08,07,15.00
2007,08,25,08,08,15.10
2007,08,25,08,09,15.10
2007,08,25,08,10,15.20
2007,08,25,08,11,15.20
2007,08,25,08,12,15.30
2007,08,25,08,13,15.30
2007,08,25,08,14,15.30
2007,08,25,08,15,15.40
2007,08,25,08,16,15.40
2007,08,25,08,17,15.40
2007,08,25,08,18,15.50
2007,08,25,08,19,15.50
2007,08,25,08,20,15.60
2007,08,25,08,21,15.60
2007,08,25,08,22,15.60
2007,08,25,08,23,15.60
2007,08,25,08,24,15.70
2007,08,25,08,25,15.70
2007,08,25,08,26,15.70
2007,08,25,08,27,15.70
2007,08,25,08,28,15.80
2007,08,25,08,29,15.80
2007,08,25,08,30,15.80
2007,08,25,08,31,15.80
2007,08,25,08,32,15.90
2007,08,25,08,33,15.90
2007,08,25,08,34,16.00
2007,08,25,08,35,16.00
2007,08,25,08,36,16.00
2007,08,25,08,37,16.10
2007,08,25,08,38,16.10
2007,08,25,08,39,16.10
2007,08,25,08,40,16.20
2007,08,25,08,41,16.20
2007,08,25,08,42,16.20
2007,08,25,08,43,16.20
2007,08,25,08,44,16.20
2007,08,25,08,45,16.20
2007,08,25,08,46,16.20
2007,08,25,08,47,16.20
2007,08,25,08,48,16.30
2007,08,25,08,49,16.30
2007,08,25,08,50,16.30
2007,08,25,08,51,16.30
2007,08,25,08,52,16.40
2007,08,25,08,53,16.40
2007,08,25,08,54,16.40
2007,08,25,08,55,16.50
2007,08,25,08,56,16.50
2007,08,25,08,57,16.50
2007,08,25,08,58,16.60
2007,08,25,08,59,16.60
2007,08,25,09,00,16.60
2007,08,25,09,01,16.60
2007,08,25,09,02,16.70
2007,08,25,09,03,16.70
2007,08,25,09,04,16.70
2007,08,25,09,05,16.70
2007,08,25,09,06,16.80
2007,08,25,09,07,16.80
2007,08,25,09,08,16.80
2007,08,25,09,09,16.90
2007,08,25,09,10,16.90
2007,08,25,09,11,16.90
2007,08,25,09,12,17.00
2007,08,25,09,13,17.00
2007,08,25,09,14,17.10
2007,08,25,09,15,17.10
2007,08,25,09,16,17.20
2007,08,25,09,17,17.20
2007,08,25,09,18,17.30
2007,08,25,09,19,17.30
2007,08,25,09,20,17.40
2007,08,25,09,21,17.50
2007,08,25,09,22,17.60
2007,08,25,09,23,17.60
2007,08,25,09,24,17.70
2007,08,25,09,25,17.80
2007,08,25,09,26,17.80
2007,08,25,09,27,17.90
2007,08,25,09,28,18.00
2007,08,25,09,29,18.10
2007,08,25,09,30,18.10
2007,08,25,09,31,18.20
2007,08,25,09,32,18.20
2007,08,25,09,33,18.30
2007,08,25,09,34,18.30
2007,08,25,09,35,18.40
2007,08,25,09,36,18.50
2007,08,25,09,37,18.50
2007,08,25,09,38,18.60
2007,08,25,09,39,18.60
2007,08,25,09,40,18.60
2007,08,25,09,41,18.60
2007,08,25,09,42,18.60
2007,08,25,09,43,18.60
2007,08,25,09,44,18.60
2007,08,25,09,45,18.60
2007,08,25,09,46,18.60
2007,08,25,09,47,18.60
2007,08,25,09,48,18.60
2007,08,25,09,49,18.60
2007,08,25,09,50,18.60
2007,08,25,09,51,18.60
2007,08,25,09,52,18.60
2007,08,25,09,53,18.60
2007,08,25,09,54,18.60
2007,08,25,09,55,18.60
2007,08,25,09,56,18.60
2007,08,25,09,57,18.50
2007,08,25,09,58,18.50
2007,08,25,09,59,18.50
2007,08,25,10,00,18.50
2007,08,25,10,01,18.60
2007,08,25,10,02,18.60
2007,08,25,10,03,18.60
2007,08,25,10,04,18.60
2007,08,25,10,05,18.60
2007,08,25,10,06,18.60
2007,08,25,10,07,18.60
2007,08,25,10,08,18.70
2007,08,25,10,09,18.70
2007,08,25,10,10,18.70
2007,08,25,10,11,18.70
2007,08,25,10,12,18.70
2007,08,25,10,13,18.70
2007,08,25,10,14,18.80
2007,08,25,10,15,18.80
2007,08,25,10,16,18.90
2007,08,25,10,17,18.90
2007,08,25,10,18,19.00
2007,08,25,10,19,19.10
2007,08,25,10,20,19.20
2007,08,25,10,21,19.20
2007,08,25,10,22,19.30
2007,08,25,10,23,19.40
2007,08,25,10,24,19.50
2007,08,25,10,25,19.60
2007,08,25,10,26,19.60
2007,08,25,10,27,19.70
2007,08,25,10,28,19.70
2007,08,25,10,29,19.80
2007,08,25,10,30,19.80
2007,08,25,10,31,19.90
2007,08,25,10,32,19.90
2007,08,25,10,33,20.00
2007,08,25,10,34,20.10
2007,08,25,10,35,20.10
2007,08,25,10,36,20.10
2007,08,25,10,37,20.10
2007,08,25,10,38,20.10
2007,08,25,10,39,20.10
2007,08,25,10,40,20.10
2007,08,25,10,41,20.20
2007,08,25,10,42,20.20
2007,08,25,10,43,20.20
2007,08,25,10,44,20.10
2007,08,25,10,45,20.00
2007,08,25,10,46,19.90
2007,08,25,10,47,19.70
2007,08,25,10,48,19.70
2007,08,25,10,49,19.70
2007,08,25,10,50,19.70
2007,08,25,10,51,19.70
2007,08,25,10,52,19.80
2007,08,25,10,53,19.80
2007,08,25,10,54,19.90
2007,08,25,10,55,19.90
2007,08,25,10,56,20.00
2007,08,25,10,57,20.00
2007,08,25,10,58,20.10
2007,08,25,10,59,20.10
2007,08,25,11,00,20.20
2007,08,25,11,01,20.30
2007,08,25,11,02,20.30
2007,08,25,11,03,20.40
2007,08,25,11,04,20.40
2007,08,25,11,05,20.30
2007,08,25,11,06,20.30
2007,08,25,11,07,20.30
2007,08,25,11,08,20.30
2007,08,25,11,09,20.30
2007,08,25,11,10,20.30
2007,08,25,11,11,20.30
2007,08,25,11,12,20.40
2007,08,25,11,13,20.40
2007,08,25,11,14,20.40
2007,08,25,11,15,20.50
2007,08,25,11,16,20.50
2007,08,25,11,17,20.60
2007,08,25,11,18,20.50
2007,08,25,11,19,20.40
2007,08,25,11,20,20.40
2007,08,25,11,21,20.40
2007,08,25,11,22,20.40
2007,08,25,11,23,20.40
2007,08,25,11,24,20.50
2007,08,25,11,25,20.50
2007,08,25,11,26,20.60
2007,08,25,11,27,20.60
2007,08,25,11,28,20.60
2007,08,25,11,29,20.60
2007,08,25,11,30,20.70
2007,08,25,11,31,20.60
2007,08,25,11,32,20.60
2007,08,25,11,33,20.60
2007,08,25,11,34,20.60
2007,08,25,11,35,20.60
2007,08,25,11,36,20.50
2007,08,25,11,37,20.50
2007,08,25,11,38,20.40
2007,08,25,11,39,20.40
2007,08,25,11,40,20.40
2007,08,25,11,41,20.40
2007,08,25,11,42,20.30
2007,08,25,11,43,20.40
2007,08,25,11,44,20.40
2007,08,25,11,45,20.50
2007,08,25,11,46,20.50
2007,08,25,11,47,20.40
2007,08,25,11,48,20.40
2007,08,25,11,49,20.40
2007,08,25,11,50,20.30
2007,08,25,11,51,20.30
2007,08,25,11,52,20.30
2007,08,25,11,53,20.30
2007,08,25,11,54,20.30
2007,08,25,11,55,20.20
2007,08,25,11,56,20.20
2007,08,25,11,57,20.10
2007,08,25,11,58,20.10
2007,08,25,11,59,20.10
2007,08,25,12,00,20.10
2007,08,25,12,01,20.10
2007,08,25,12,02,20.10
2007,08,25,12,03,20.00
2007,08,25,12,04,20.00
2007,08,25,12,05,19.80
2007,08,25,12,06,19.80
2007,08,25,12,07,19.80
2007,08,25,12,08,19.80
2007,08,25,12,09,19.70
2007,08,25,12,10,19.60
2007,08,25,12,11,19.70
2007,08,25,12,12,19.70
2007,08,25,12,13,19.70
2007,08,25,12,14,19.60
2007,08,25,12,15,19.60
2007,08,25,12,16,19.60
2007,08,25,12,17,19.60
2007,08,25,12,18,19.60
2007,08,25,12,19,19.60
2007,08,25,12,20,19.60
2007,08,25,12,21,19.60
2007,08,25,12,22,19.60
2007,08,25,12,23,19.50
2007,08,25,12,24,19.50
2007,08,25,12,25,19.50
2007,08,25,12,26,19.40
2007,08,25,12,27,19.40
2007,08,25,12,28,19.30
2007,08,25,12,29,19.40
2007,08,25,12,30,19.40
2007,08,25,12,31,19.40
2007,08,25,12,32,19.40
2007,08,25,12,33,19.40
2007,08,25,12,34,19.40
2007,08,25,12,35,19.40
2007,08,25,12,36,19.40
2007,08,25,12,37,19.50
2007,08,25,12,38,19.50
2007,08,25,12,39,19.40
2007,08,25,12,40,19.40
2007,08,25,12,41,19.30
2007,08,25,12,42,19.30
2007,08,25,12,43,19.20
2007,08,25,12,44,19.20
2007,08,25,12,45,19.20
2007,08,25,12,46,19.20
2007,08,25,12,47,19.20
2007,08,25,12,48,19.20
2007,08,25,12,49,19.20
2007,08,25,12,50,19.20
2007,08,25,12,51,19.30
2007,08,25,12,52,19.30
2007,08,25,12,53,19.40
2007,08,25,12,54,19.40
2007,08,25,12,55,19.40
2007,08,25,12,56,19.50
2007,08,25,12,57,19.60
2007,08,25,12,58,19.60
2007,08,25,12,59,19.60
2007,08,25,13,00,19.60
2007,08,25,13,01,19.60
2007,08,25,13,02,19.60
2007,08,25,13,03,19.60
2007,08,25,13,04,19.50
2007,08,25,13,05,19.40
2007,08,25,13,06,19.40
2007,08,25,13,07,19.30
2007,08,25,13,08,19.30
2007,08,25,13,09,19.20
2007,08,25,13,10,19.20
2007,08,25,13,11,19.10
2007,08,25,13,12,19.00
2007,08,25,13,13,18.90
2007,08,25,13,14,18.80
2007,08,25,13,15,18.80
2007,08,25,13,16,18.80
2007,08,25,13,17,18.90
2007,08,25,13,18,18.90
2007,08,25,13,19,18.90
2007,08,25,13,20,19.00
2007,08,25,13,21,19.00
2007,08,25,13,22,19.10
2007,08,25,13,23,19.10
2007,08,25,13,24,19.10
2007,08,25,13,25,19.10
2007,08,25,13,26,19.10
2007,08,25,13,27,19.10
2007,08,25,13,28,19.10
2007,08,25,13,29,19.10
2007,08,25,13,30,18.90
2007,08,25,13,31,18.60
2007,08,25,13,32,18.50
2007,08,25,13,33,18.40
2007,08,25,13,34,18.30
2007,08,25,13,35,18.10
2007,08,25,13,36,17.90
2007,08,25,13,37,17.70
2007,08,25,13,38,17.70
2007,08,25,13,39,17.60
2007,08,25,13,40,17.60
2007,08,25,13,41,17.60
2007,08,25,13,42,17.50
2007,08,25,13,43,17.50
2007,08,25,13,44,17.60
2007,08,25,13,45,17.60
2007,08,25,13,46,17.60
2007,08,25,13,47,17.60
2007,08,25,13,48,17.60
2007,08,25,13,49,17.70
2007,08,25,13,50,17.70
2007,08,25,13,51,17.70
2007,08,25,13,52,17.70
2007,08,25,13,53,17.80
2007,08,25,13,54,17.80
2007,08,25,13,55,17.90
2007,08,25,13,56,17.80
2007,08,25,13,57,17.90
2007,08,25,13,58,18.00
2007,08,25,13,59,18.10
2007,08,25,14,00,18.20
2007,08,25,14,01,18.40
2007,08,25,14,02,18.50
2007,08,25,14,03,18.70
2007,08,25,14,04,18.90
2007,08,25,14,05,19.10
2007,08,25,14,06,19.20
2007,08,25,14,07,19.30
2007,08,25,14,08,19.30
2007,08,25,14,09,19.40
2007,08,25,14,10,19.40
2007,08,25,14,11,19.40
2007,08,25,14,12,19.50
2007,08,25,14,13,19.40
2007,08,25,14,14,19.50
2007,08,25,14,15,19.50
2007,08,25,14,16,19.50
2007,08,25,14,17,19.60
2007,08,25,14,18,19.70
2007,08,25,14,19,19.70
2007,08,25,14,20,19.80
2007,08,25,14,21,19.90
2007,08,25,14,22,19.90
2007,08,25,14,23,19.90
2007,08,25,14,24,19.80
2007,08,25,14,25,19.80
2007,08,25,14,26,19.70
2007,08,25,14,27,19.70
2007,08,25,14,28,19.70
2007,08,25,14,29,19.60
2007,08,25,14,30,19.60
2007,08,25,14,31,19.60
2007,08,25,14,32,19.60
2007,08,25,14,33,19.70
2007,08,25,14,34,19.70
2007,08,25,14,35,19.70
2007,08,25,14,36,19.60
2007,08,25,14,37,19.60
2007,08,25,14,38,19.60
2007,08,25,14,39,19.60
2007,08,25,14,40,19.70
2007,08,25,14,41,19.70
2007,08,25,14,42,19.70
2007,08,25,14,43,19.70
2007,08,25,14,44,19.70
2007,08,25,14,45,19.70
2007,08,25,14,46,19.70
2007,08,25,14,47,19.70
2007,08,25,14,48,19.60
2007,08,25,14,49,19.50
2007,08,25,14,50,19.40
2007,08,25,14,51,19.40
2007,08,25,14,52,19.30
2007,08,25,14,53,19.20
2007,08,25,14,54,19.20
2007,08,25,14,55,19.20
2007,08,25,14,56,19.20
2007,08,25,14,57,19.20
2007,08,25,14,58,19.20
2007,08,25,14,59,19.30
2007,08,25,15,00,19.30
2007,08,25,15,01,19.30
2007,08,25,15,02,19.30
2007,08,25,15,03,19.40
2007,08,25,15,04,19.30
2007,08,25,15,05,19.30
2007,08,25,15,06,19.20
2007,08,25,15,07,19.10
2007,08,25,15,08,18.90
2007,08,25,15,09,18.80
2007,08,25,15,10,18.70
2007,08,25,15,11,18.60
2007,08,25,15,12,18.50
2007,08,25,15,13,18.40
2007,08,25,15,14,18.40
2007,08,25,15,15,18.40
2007,08,25,15,16,18.40
2007,08,25,15,17,18.30
2007,08,25,15,18,18.30
2007,08,25,15,19,18.30
2007,08,25,15,20,18.20
2007,08,25,15,21,18.20
2007,08,25,15,22,18.20
2007,08,25,15,23,18.10
2007,08,25,15,24,18.10
2007,08,25,15,25,18.10
2007,08,25,15,26,18.10
2007,08,25,15,27,18.00
2007,08,25,15,28,17.90
2007,08,25,15,29,17.90
2007,08,25,15,30,17.90
2007,08,25,15,31,17.90
2007,08,25,15,32,17.90
2007,08,25,15,33,17.80
2007,08,25,15,34,17.80
2007,08,25,15,35,17.70
2007,08,25,15,36,17.70
2007,08,25,15,37,17.60
2007,08,25,15,38,17.50
2007,08,25,15,39,17.50
2007,08,25,15,40,17.50
2007,08,25,15,41,17.50
2007,08,25,15,42,17.40
2007,08,25,15,43,17.40
2007,08,25,15,44,17.40
2007,08,25,15,45,17.40
2007,08,25,15,46,17.40
2007,08,25,15,47,17.30
2007,08,25,15,48,17.30
2007,08,25,15,49,17.30
2007,08,25,15,50,17.30
2007,08,25,15,51,17.30
2007,08,25,15,52,17.30
2007,08,25,15,53,17.30
2007,08,25,15,54,17.30
2007,08,25,15,55,17.30
2007,08,25,15,56,17.30
2007,08,25,15,57,17.30
2007,08,25,15,58,17.30
2007,08,25,15,59,17.30
2007,08,25,16,00,17.20
2007,08,25,16,01,17.20
2007,08,25,16,02,17.20
2007,08,25,16,03,17.10
2007,08,25,16,04,17.10
2007,08,25,16,05,17.10
2007,08,25,16,06,17.00
2007,08,25,16,07,17.00
2007,08,25,16,08,16.90
2007,08,25,16,09,16.80
2007,08,25,16,10,16.80
2007,08,25,16,11,16.70
2007,08,25,16,12,16.70
2007,08,25,16,13,16.70
2007,08,25,16,14,16.70
2007,08,25,16,15,16.70
2007,08,25,16,16,16.70
2007,08,25,16,17,16.70
2007,08,25,16,18,16.70
2007,08,25,16,19,16.70
2007,08,25,16,20,16.70
2007,08,25,16,21,16.70
2007,08,25,16,22,16.70
2007,08,25,16,23,16.70
2007,08,25,16,24,16.70
2007,08,25,16,25,16.70
2007,08,25,16,26,16.70
2007,08,25,16,27,16.70
2007,08,25,16,28,16.70
2007,08,25,16,29,16.70
2007,08,25,16,30,16.70
2007,08,25,16,31,16.70
2007,08,25,16,32,16.80
2007,08,25,16,33,16.80
2007,08,25,16,34,16.90
2007,08,25,16,35,16.90
2007,08,25,16,36,17.00
2007,08,25,16,37,17.00
2007,08,25,16,38,17.10
2007,08,25,16,39,17.10
2007,08,25,16,40,17.10
2007,08,25,16,41,17.10
2007,08,25,16,42,17.10
2007,08,25,16,43,17.10
2007,08,25,16,44,17.20
2007,08,25,16,45,17.20
2007,08,25,16,46,17.20
2007,08,25,16,47,17.20
2007,08,25,16,48,17.20
2007,08,25,16,49,17.20
2007,08,25,16,50,17.20
2007,08,25,16,51,17.20
2007,08,25,16,52,17.30
2007,08,25,16,53,17.30
2007,08,25,16,54,17.30
2007,08,25,16,55,17.40
2007,08,25,16,56,17.40
2007,08,25,16,57,17.40
2007,08,25,16,58,17.30
2007,08,25,16,59,17.30
2007,08,25,17,00,17.20
2007,08,25,17,01,17.20
2007,08,25,17,02,17.20
2007,08,25,17,03,17.10
2007,08,25,17,04,17.10
2007,08,25,17,05,17.10
2007,08,25,17,06,17.10
2007,08,25,17,07,17.10
2007,08,25,17,08,17.10
2007,08,25,17,09,17.20
2007,08,25,17,10,17.20
2007,08,25,17,11,17.20
2007,08,25,17,12,17.20
2007,08,25,17,13,17.20
2007,08,25,17,14,17.20
2007,08,25,17,15,17.20
2007,08,25,17,16,17.20
2007,08,25,17,17,17.20
2007,08,25,17,18,17.20
2007,08,25,17,19,17.30